Wind_Speed
6 7 8 8 9 10 10 10 11 11 12 13 14 14 16 17 18 19 20 20 20 20 21 22 23 23 24 24 24 23 23 22 22 22 21 19 17 16 15 13 12 10 8 7
4 5 5 7 8 8 9 9 10 11 12 13 13 14 15 17 18 19 19 19 20 20 21 21 22 23 24 25 24 24 23 23 23 23 22 20 19 18 16 15 13 12 10 9
3 3 5 5 7 7 8 9 10 10 11 12 13 14 15 16 17 18 18 19 19 20 20 21 21 22 24 24 25 25 24 24 24 23 23 22 21 20 18 17 16 14 13 11
2 2 3 5 6 7 8 8 9 10 11 11 12 14 15 16 17 17 18 18 19 19 19 20 21 22 22 24 24 25 25 25 25 24 24 23 23 21 20 19 18 17 15 14
1 2 3 4 5 6 7 8 9 9 10 11 12 13 14 15 16 17 17 17 18 19 19 20 20 21 22 22 24 25 26 26 26 25 25 24 24 23 22 21 20 19 18 16
2 3 3 4 4 5 6 7 8 9 10 10 11 12 13 14 15 16 16 16 17 18 19 19 20 20 21 21 23 24 25 26 26 26 26 25 25 24 24 23 22 21 20 19
5 5 5 5 5 5 6 7 8 9 9 10 11 11 12 12 13 14 15 16 16 17 17 18 19 19 20 21 22 23 24 25 26 26 26 26 26 25 25 24 24 23 22 20
8 8 8 8 8 8 8 8 9 9 9 10 10 11 11 12 13 13 14 15 15 16 16 17 18 18 19 19 20 21 23 24 25 26 26 26 26 26 26 25 25 25 24 22
12 11 11 11 11 11 10 10 11 11 11 11 11 11 12 12 13 13 14 14 15 15 15 16 16 17 18 18 19 20 21 22 24 25 25 26 26 26 26 26 26 26 25 24
16 15 13 14 14 14 14 13 13 13 13 13 13 13 13 14 14 14 14 14 14 14 14 15 15 16 16 17 18 18 19 20 22 23 24 25 25 26 26 26 26 26 26 25
19 18 16 16 17 17 17 17 16 16 16 16 15 15 15 15 15 15 15 15 15 15 15 15 15 15 15 16 16 17 18 18 19 21 22 23 24 24 24 25 25 25 25 25
20 19 19 19 19 19 20 20 20 20 19 19 19 18 18 18 17 17 17 17 16 16 15 15 15 15 15 15 15 16 16 17 17 18 19 20 21 22 23 23 23 24 24 24
22 22 22 22 21 21 22 23 23 23 23 22 22 21 21 21 20 20 20 19 18 18 17 16 16 16 15 15 15 15 15 15 16 16 17 18 18 19 20 21 21 21 22 23
26 25 25 25 25 25 25 25 25 26 26 26 25 25 24 24 23 23 23 22 21 21 20 19 18 17 17 16 16 15 15 14 14 15 15 16 16 16 17 18 18 18 19 20
31 30 30 30 29 29 29 29 28 28 28 28 29 28 28 27 26 26 26 26 25 24 24 23 21 20 19 18 17 16 16 15 14 14 14 14 14 14 14 15 15 16 16 16
35 36 36 36 35 35 35 34 33 33 33 33 32 32 32 31 30 29 29 29 29 28 27 26 25 25 23 21 20 19 17 16 15 14 13 13 12 12 12 12 12 12 13 13
40 41 42 42 42 42 42 41 40 39 39 38 37 37 36 35 34 33 33 33 32 31 30 30 30 29 27 25 24 22 21 19 17 16 14 13 12 12 11 10 9 9 9 9
44 45 46 47 48 48 48 48 48 47 46 45 44 43 41 40 38 38 38 37 36 34 33 34 34 33 31 29 28 26 25 23 21 19 17 16 14 13 11 10 9 8 7 6
47 47 48 50 51 52 52 53 53 53 53 52 51 50 48 47 45 43 43 42 40 37 37 38 38 36 34 33 32 31 29 27 25 23 21 19 17 16 14 12 11 9 8 7
46 46 47 49 50 52 53 54 54 55 55 55 55 55 54 53 52 50 49 47 44 43 42 42 41 39 38 37 36 34 33 31 30 28 26 24 22 19 18 16 15 13 11 10
43 44 45 46 48 49 51 52 53 55 55 56 56 57 57 56 56 55 54 53 50 49 48 47 45 43 42 41 39 38 36 35 34 32 30 28 26 24 22 20 19 17 16 14
41 41 42 43 45 46 48 50 52 53 54 56 57 58 58 58 59 58 58 57 55 55 54 52 50 48 46 45 43 41 40 39 38 36 35 33 31 29 27 25 23 21 20 18
41 43 44 45 47 48 49 51 52 54 55 56 57 58 58 59 60 60 60 60 60 59 58 56 55 53 51 50 48 45 43 42 41 40 39 37 35 33 31 29 27 26 24 23
45 46 48 50 51 52 53 54 55 56 57 58 59 59 59 60 61 62 62 62 62 62 61 60 59 58 57 55 53 50 48 46 44 43 42 41 39 37 35 33 32 30 28 27
49 51 52 54 55 57 58 58 58 59 59 59 60 60 61 61 61 61 62 63 64 64 64 64 63 62 62 60 58 55 53 51 49 47 46 45 43 41 40 38 36 34 32 31
53 55 56 58 59 60 61 62 62 62 62 61 61 62 62 62 62 62 62 63 64 65 66 66 66 66 65 64 63 61 59 56 54 52 50 49 47 46 44 42 41 39 37 35
55 57 58 60 61 62 63 64 64 65 65 65 64 64 64 63 63 63 63 63 63 64 65 66 67 68 68 68 67 66 64 62 59 57 55 53 52 50 49 47 45 44 42 40
Wind_Direction
81 71 68 65 61 58 53 46 40 34 31 30 28 26 25 24 23 22 22 23 24 24 24 23 23 23 23 24 24 24 23 22 21 20 20 20 19 18 14 11 6 357 345 324
78 63 56 54 53 50 45 40 36 33 31 28 26 24 23 23 22 22 22 24 24 25 25 24 24 24 24 25 24 23 22 22 21 21 20 20 20 18 16 11 5 359 351 337
66 40 33 35 37 37 34 32 29 27 25 24 22 21 21 22 22 22 22 23 24 25 26 25 24 24 25 25 24 23 22 22 21 20 20 20 18 15 11 8 4 359 352 343
56 30 14 23 25 28 28 27 25 23 20 18 18 21 23 23 22 23 23 23 24 25 25 25 24 24 24 24 24 23 23 22 21 21 20 19 17 15 12 8 5 360 353 345
325 340 355 3 6 11 17 20 19 18 15 13 14 18 20 20 21 21 21 22 24 25 24 24 24 24 23 23 22 22 22 22 21 20 19 18 17 16 13 10 6 1 356 349
284 298 315 336 343 350 359 2 4 6 6 5 6 9 12 15 17 17 17 18 20 22 22 21 22 22 21 21 20 20 20 20 20 20 19 19 18 17 15 13 9 6 1 356
275 279 287 297 308 319 329 340 343 346 349 351 354 357 1 3 5 7 9 12 14 16 17 18 18 18 18 18 18 18 18 18 19 19 19 19 18 17 16 15 13 10 8 5
274 277 279 283 287 295 303 312 320 324 329 333 335 340 345 349 352 354 357 2 5 8 10 11 12 13 13 14 15 16 16 18 18 18 18 18 18 18 18 18 17 16 15 15
265 269 275 280 285 288 291 295 299 305 311 317 320 322 327 331 335 340 345 350 354 357 0 3 5 6 7 9 10 11 13 15 16 17 17 17 18 20 21 21 22 22 22 23
266 268 272 277 280 284 288 291 293 295 298 302 305 309 313 317 321 325 329 334 340 344 347 350 353 356 358 1 3 5 7 9 12 14 15 16 18 20 23 24 24 26 27 29
270 274 275 276 278 282 285 287 288 289 290 292 294 297 301 305 308 313 317 321 325 329 332 336 340 343 347 350 354 358 1 4 6 10 13 15 17 20 23 25 26 27 29 31
271 275 277 278 279 281 282 283 284 285 286 287 288 289 291 294 297 300 303 308 312 315 318 321 326 330 335 339 344 348 352 356 360 4 8 12 15 19 22 24 26 29 31 33
273 275 276 276 277 279 280 281 282 283 283 284 285 285 285 286 289 291 293 295 298 302 305 308 311 315 320 325 330 335 340 345 350 355 0 6 10 15 19 22 25 29 32 35
275 275 276 277 278 278 279 280 281 282 282 283 283 283 283 283 283 284 286 287 288 289 291 295 298 302 306 310 315 320 326 331 336 343 349 356 2 8 14 19 23 27 31 35
273 274 275 276 277 277 278 279 279 280 280 281 281 281 281 281 281 281 281 281 281 282 283 285 287 289 292 295 300 305 310 316 321 327 334 342 350 357 4 11 17 23 29 34
270 272 273 274 274 274 275 275 276 277 278 278 279 279 280 280 280 280 279 278 278 278 279 279 279 279 281 284 287 290 295 299 305 311 316 323 331 340 348 357 6 14 22 29
265 267 270 271 272 273 273 274 274 274 275 275 276 276 277 277 277 277 277 277 277 277 277 276 274 274 275 276 277 279 282 285 289 294 299 304 309 317 325 335 346 356 7 19
263 264 266 267 269 271 272 273 273 273 273 273 273 273 273 274 274 274 274 274 275 275 275 273 272 272 272 272 272 272 273 274 276 279 283 287 290 295 301 308 316 326 338 351
265 265 265 266 267 268 269 270 271 272 272 272 272 271 271 271 271 271 271 272 273 273 272 271 271 271 271 270 269 268 268 268 269 270 272 274 276 278 281 285 289 293 299 304
265 266 266 267 268 268 269 270 271 271 272 272 272 272 271 270 269 269 268 268 269 269 268 269 269 269 269 268 267 266 265 265 265 265 265 266 266 268 269 271 272 274 275 277
268 269 268 269 269 270 271 271 272 272 273 273 273 272 271 270 269 268 267 266 265 265 265 265 266 266 266 266 265 264 263 263 262 261 261 261 261 261 261 262 264 264 265 264
275 275 275 275 274 274 274 275 275 275 275 274 274 274 273 271 270 268 267 265 263 262 262 262 263 263 263 263 263 262 261 261 260 259 259 258 257 257 257 257 258 259 259 259
280 281 282 282 281 281 281 280 279 279 278 277 276 274 273 272 271 269 266 265 263 261 259 259 259 258 259 259 260 260 260 259 258 257 256 256 255 255 254 254 254 255 255 256
284 284 285 285 285 285 284 284 283 282 281 280 278 277 275 273 271 269 267 265 262 260 258 257 255 255 255 255 256 256 256 256 256 255 254 254 253 253 252 252 252 252 252 253
287 287 287 287 287 287 287 287 286 285 283 282 280 279 277 274 271 269 267 265 263 260 258 255 253 252 251 252 252 252 253 253 253 253 252 252 251 251 251 250 250 250 251 251
288 288 289 289 289 289 289 288 288 287 285 284 282 281 279 276 274 271 268 265 262 260 257 255 252 251 249 249 249 249 249 249 249 250 251 250 250 250 250 249 249 249 250 250
289 290 290 291 291 291 290 290 289 289 288 286 285 283 281 279 276 273 269 266 262 259 257 254 252 250 248 247 247 246 246 246 246 247 248 248 249 248 248 248 248 249 249 250
Height
5888 5887 5885 5883 5881 5879 5877 5876 5873 5871 5868 5865 5862 5859 5856 5852 5848 5845 5841 5837 5833 5828 5824 5820 5815 5811 5806 5801 5796 5791 5787 5782 5778 5773 5769 5765 5761 5757 5754 5751 5748 5746 5743 5742
5889 5888 5886 5884 5882 5880 5878 5876 5874 5872 5869 5866 5863 5860 5857 5853 5850 5846 5842 5839 5834 5830 5826 5822 5818 5813 5808 5803 5798 5794 5789 5785 5780 5775 5771 5766 5762 5759 5755 5752 5748 5745 5743 5740
5889 5888 5887 5885 5883 5881 5879 5877 5875 5872 5871 5867 5864 5861 5858 5854 5851 5847 5844 5840 5836 5832 5828 5824 5820 5815 5811 5806 5801 5796 5792 5787 5782 5777 5773 5768 5764 5760 5756 5752 5748 5745 5742 5739
5889 5888 5887 5888 5883 5881 5879 5877 5875 5873 5870 5868 5865 5862 5858 5855 5852 5848 5845 5841 5837 5834 5830 5826 5822 5817 5813 5808 5804 5799 5794 5789 5784 5779 5775 5770 5765 5761 5756 5752 5748 5744 5740 5737
5888 5887 5886 5886 5883 5881 5879 5878 5875 5873 5871 5868 5865 5862 5859 5856 5853 5850 5846 5843 5839 5835 5831 5827 5823 5819 5815 5811 5806 5802 5797 5792 5787 5782 5777 5772 5767 5762 5757 5752 5748 5743 5739 5735
5887 5886 5885 5885 5883 5880 5880 5877 5875 5873 5871 5868 5865 5863 5861 5857 5854 5851 5847 5844 5840 5836 5833 5829 5825 5821 5817 5813 5809 5804 5799 5794 5789 5784 5779 5773 5768 5763 5758 5753 5748 5743 5738 5732
5885 5884 5883 5883 5881 5880 5880 5878 5874 5872 5870 5868 5865 5863 5861 5857 5854 5851 5848 5845 5841 5837 5834 5830 5827 5823 5819 5815 5810 5806 5801 5796 5791 5786 5781 5776 5770 5765 5759 5754 5748 5743 5737 5731
5882 5881 5882 5880 5878 5878 5877 5875 5873 5871 5869 5867 5865 5862 5860 5857 5854 5852 5849 5845 5842 5838 5835 5831 5828 5824 5820 5816 5812 5808 5803 5799 5794 5789 5783 5778 5772 5767 5761 5755 5750 5744 5738 5732
5879 5880 5878 5876 5875 5875 5873 5872 5871 5869 5868 5866 5864 5861 5859 5856 5854 5851 5848 5845 5842 5838 5835 5832 5829 5825 5821 5818 5814 5809 5805 5801 5796 5791 5786 5781 5775 5769 5763 5758 5752 5746 5740 5735
5873 5873 5873 5872 5871 5870 5869 5869 5867 5866 5865 5863 5861 5860 5857 5855 5852 5850 5847 5844 5841 5838 5835 5832 5829 5826 5822 5819 5815 5811 5807 5802 5798 5793 5788 5783 5778 5772 5767 5762 5756 5751 5745 5739
5868 5868 5868 5867 5866 5866 5865 5864 5863 5862 5860 5859 5858 5856 5854 5852 5850 5847 5845 5842 5840 5837 5834 5831 5828 5825 5822 5819 5815 5812 5808 5804 5800 5795 5791 5786 5781 5776 5771 5766 5760 5755 5750 5745
5864 5864 5863 5863 5862 5861 5860 5859 5858 5857 5855 5854 5853 5852 5850 5848 5846 5844 5842 5840 5838 5835 5833 5830 5827 5824 5821 5818 5815 5812 5808 5805 5801 5797 5793 5789 5784 5779 5774 5769 5765 5760 5755 5750
5857 5857 5857 5856 5856 5855 5854 5853 5852 5850 5849 5848 5847 5846 5845 5843 5841 5840 5838 5836 5834 5832 5830 5827 5825 5822 5820 5817 5814 5811 5808 5805 5802 5798 5794 5790 5786 5782 5778 5773 5769 5764 5760 5755
5849 5849 5849 5849 5848 5848 5847 5846 5845 5843 5842 5841 5840 5839 5838 5837 5836 5834 5832 5831 5829 5827 5826 5824 5822 5819 5817 5815 5812 5810 5807 5804 5801 5798 5795 5791 5788 5784 5780 5777 5773 5769 5765 5760
5840 5841 5840 5840 5839 5839 5838 5838 5837 5836 5835 5834 5833 5832 5831 5830 5829 5828 5826 5825 5823 5822 5820 5819 5817 5815 5813 5811 5809 5807 5805 5802 5800 5797 5794 5792 5788 5785 5782 5779 5776 5772 5768 5765
5831 5831 5830 5830 5829 5829 5828 5828 5828 5827 5826 5825 5824 5823 5823 5822 5821 5820 5819 5817 5816 5815 5814 5812 5811 5809 5808 5806 5805 5803 5801 5799 5797 5795 5793 5790 5788 5785 5783 5780 5777 5774 5771 5768
5822 5821 5819 5818 5818 5817 5817 5816 5816 5816 5816 5815 5814 5814 5813 5813 5812 5811 5810 5809 5808 5808 5806 5805 5803 5802 5801 5800 5799 5798 5796 5795 5793 5791 5790 5788 5786 5784 5782 5780 5778 5775 5773 5771
5809 5808 5807 5806 5805 5804 5803 5803 5803 5803 5802 5802 5802 5802 5802 5802 5801 5801 5800 5799 5799 5799 5797 5796 5794 5794 5794 5793 5792 5791 5790 5789 5788 5787 5785 5784 5783 5781 5780 5778 5776 5775 5773 5771
5794 5794 5793 5792 5792 5790 5790 5789 5788 5788 5787 5787 5788 5788 5788 5788 5788 5789 5788 5788 5788 5788 5787 5785 5785 5785 5785 5784 5783 5783 5782 5781 5781 5780 5779 5779 5778 5777 5776 5775 5774 5773 5771 5770
5779 5779 5779 5778 5777 5775 5774 5774 5773 5772 5771 5771 5771 5772 5772 5773 5773 5774 5774 5775 5776 5775 5774 5773 5773 5774 5774 5774 5773 5773 5773 5773 5773 5772 5772 5772 5771 5771 5770 5770 5769 5769 5768 5767
5765 5765 5764 5763 5762 5760 5759 5758 5757 5756 5755 5754 5754 5754 5754 5755 5756 5756 5757 5760 5761 5760 5760 5760 5761 5762 5762 5762 5762 5763 5763 5763 5764 5763 5763 5763 5764 5764 5764 5763 5763 5763 5763 5763
5750 5749 5748 5748 5746 5745 5743 5742 5741 5739 5738 5737 5736 5736 5736 5736 5736 5737 5738 5740 5743 5743 5744 5745 5746 5747 5748 5748 5749 5750 5751 5752 5753 5753 5754 5754 5754 5755 5755 5755 5756 5756 5756 5756
5735 5734 5733 5732 5730 5729 5727 5725 5724 5722 5720 5719 5717 5717 5716 5716 5716 5717 5718 5719 5720 5723 5725 5727 5729 5730 5731 5732 5734 5736 5738 5739 5740 5741 5742 5743 5744 5745 5745 5746 5747 5747 5748 5749
5721 5719 5717 5715 5713 5711 5709 5707 5705 5703 5701 5699 5697 5696 5696 5696 5695 5694 5695 5697 5698 5701 5703 5706 5709 5711 5712 5714 5717 5720 5722 5724 5726 5727 5729 5730 5732 5733 5734 5735 5737 5738 5739 5739
5705 5703 5700 5698 5695 5693 5690 5688 5685 5683 5681 5678 5676 5674 5673 5673 5673 5672 5672 5673 5674 5676 5680 5683 5686 5689 5692 5695 5698 5701 5704 5707 5710 5712 5714 5716 5718 5720 5722 5723 5725 5726 5728 5729
5689 5686 5683 5680 5677 5674 5670 5667 5664 5661 5659 5657 5654 5652 5650 5649 5648 5648 5648 5649 5650 5651 5654 5658 5662 5666 5669 5673 5677 5681 5684 5688 5691 5694 5697 5700 5703 5705 5708 5710 5712 5714 5716 5717
5672 5669 5665 5662 5658 5654 5650 5646 5643 5639 5636 5633 5630 5627 5625 5624 5623 5622 5622 5623 5624 5626 5629 5632 5635 5640 5645 5649 5654 5658 5663 5667 5671 5675 5679 5683 5686 5689 5692 5695 5697 5700 5702 5704